• In Czech Republic
  • List of Countries
  • For 7 days
  • Water Temperature
  • Satellite Maps
  • Weather Map
  • Weather Widgets
  • user-avatar
    Login

    Hourly Weather Neuquén

    Today, 24 May, Thursday

    Time Temperature Precipitation Wind Pressure Humidity
    00:00 +12°C° 0 mm 2 mps 738 mmHg 38%
    01:00 +12°C° 0 mm 2 mps 738 mmHg 38%
    02:00 +12°C° 0 mm 2 mps 737 mmHg 39%
    03:00 +10°C° 0 mm 2 mps 737 mmHg 40%
    04:00 +10°C° 0 mm 2 mps 737 mmHg 41%
    05:00 +10°C° 0 mm 2 mps 737 mmHg 41%
    06:00 +9°C° 0 mm 2 mps 737 mmHg 42%
    07:00 +9°C° 0 mm 2 mps 737 mmHg 43%
    08:00 +12°C° 0 mm 2 mps 737 mmHg 39%
    09:00 +14°C° 0 mm 2 mps 737 mmHg 36%
    10:00 +16°C° 0 mm 2 mps 737 mmHg 32%
    11:00 +17°C° 0 mm 2 mps 736 mmHg 31%
    12:00 +18°C° 0 mm 2 mps 736 mmHg 30%
    13:00 +19°C° 0 mm 2 mps 736 mmHg 29%
    14:00 +18°C° 0 mm 2 mps 735 mmHg 31%
    15:00 +19°C° 0 mm 1 mps 735 mmHg 32%
    16:00 +18°C° 0 mm 1 mps 734 mmHg 34%
    17:00 +16°C° 0 mm 1 mps 735 mmHg 35%
    18:00 +15°C° 0 mm 1 mps 735 mmHg 37%
    19:00 +14°C° 0 mm 1 mps 735 mmHg 38%
    20:00 +14°C° 0 mm 1 mps 735 mmHg 38%
    21:00 +14°C° 0 mm 1 mps 735 mmHg 38%
    22:00 +14°C° 0 mm 1 mps 735 mmHg 37%
    23:00 +13°C° 0 mm 1 mps 734 mmHg 37%

    Tomorrow, 25 May, Friday

    Time Temperature Precipitation Wind Pressure Humidity
    00:00 +13°C° 0 mm 1 mps 734 mmHg 37%
    01:00 +13°C° 0 mm 1 mps 734 mmHg 36%
    02:00 +12°C° 0 mm 1 mps 734 mmHg 37%
    03:00 +12°C° 0 mm 1 mps 733 mmHg 37%
    04:00 +12°C° 0 mm 1 mps 733 mmHg 37%
    05:00 +12°C° 0 mm 1 mps 733 mmHg 38%
    06:00 +12°C° 0 mm 1 mps 733 mmHg 38%
    07:00 +12°C° 0 mm 2 mps 733 mmHg 38%
    08:00 +14°C° 0 mm 2 mps 733 mmHg 37%
    09:00 +16°C° 0 mm 3 mps 733 mmHg 35%
    10:00 +19°C° 0 mm 3 mps 733 mmHg 33%
    11:00 +20°C° 0 mm 4 mps 732 mmHg 32%
    12:00 +21°C° 0 mm 4 mps 731 mmHg 30%
    13:00 +22°C° 0 mm 5 mps 730 mmHg 29%
    14:00 +22°C° 0 mm 4 mps 730 mmHg 30%
    15:00 +21°C° 0 mm 4 mps 729 mmHg 32%
    16:00 +20°C° 0 mm 3 mps 729 mmHg 33%
    17:00 +19°C° 0 mm 4 mps 728 mmHg 36%
    18:00 +18°C° 0 mm 4 mps 728 mmHg 38%
    19:00 +17°C° 0 mm 5 mps 728 mmHg 41%
    20:00 +17°C° 0 mm 4 mps 728 mmHg 43%
    21:00 +15°C° 0 mm 4 mps 728 mmHg 46%
    22:00 +16°C° 0 mm 3 mps 728 mmHg 49%
    23:00 +14°C° 0 mm 3 mps 728 mmHg 45%

    Day after tomorrow, 26 May, Saturday

    Time Temperature Precipitation Wind Pressure Humidity
    00:00 +14°C° 0 mm 3 mps 728 mmHg 42%
    01:00 +13°C° 0 mm 3 mps 727 mmHg 39%
    02:00 +13°C° 0 mm 3 mps 727 mmHg 38%
    03:00 +13°C° 0 mm 3 mps 727 mmHg 37%
    04:00 +12°C° 0 mm 3 mps 727 mmHg 36%
    05:00 +13°C° 0 mm 4 mps 728 mmHg 35%
    06:00 +13°C° 0 mm 4 mps 728 mmHg 33%
    07:00 +14°C° 0 mm 5 mps 729 mmHg 31%
    08:00 +14°C° 0 mm 6 mps 729 mmHg 33%
    09:00 +14°C° 0 mm 6 mps 730 mmHg 36%
    10:00 +15°C° 0 mm 7 mps 731 mmHg 39%
    11:00 +16°C° 0 mm 8 mps 731 mmHg 35%
    12:00 +17°C° 0 mm 9 mps 731 mmHg 31%
    13:00 +18°C° 0 mm 10 mps 731 mmHg 27%
    14:00 +17°C° 0 mm 9 mps 731 mmHg 28%
    15:00 +16°C° 0 mm 8 mps 731 mmHg 28%
    16:00 +16°C° 0 mm 7 mps 731 mmHg 28%
    17:00 +15°C° 0 mm 7 mps 732 mmHg 31%
    18:00 +12°C° 0 mm 7 mps 733 mmHg 35%
    19:00 +11°C° 0 mm 7 mps 733 mmHg 38%
    20:00 +10°C° 0 mm 6 mps 734 mmHg 40%
    21:00 +10°C° 0 mm 5 mps 735 mmHg 42%
    22:00 +10°C° 0 mm 4 mps 735 mmHg 44%
    23:00 +8°C° 0 mm 4 mps 735 mmHg 46%

    27 May, Sunday

    Time Temperature Precipitation Wind Pressure Humidity
    00:00 +9°C° 0 mm 3 mps 735 mmHg 48%
    01:00 +8°C° 0 mm 3 mps 736 mmHg 51%
    02:00 +8°C° 0 mm 2 mps 736 mmHg 52%
    03:00 +8°C° 0 mm 2 mps 735 mmHg 54%
    04:00 +8°C° 0 mm 2 mps 735 mmHg 55%
    05:00 +8°C° 0 mm 2 mps 735 mmHg 56%
    06:00 +8°C° 0 mm 1 mps 735 mmHg 56%
    07:00 +8°C° 0 mm 1 mps 735 mmHg 56%
    08:00 +9°C° 0 mm 3 mps 735 mmHg 49%
    09:00 +11°C° 0 mm 4 mps 735 mmHg 41%
    10:00 +13°C° 0 mm 5 mps 735 mmHg 34%
    11:00 +14°C° 0 mm 6 mps 734 mmHg 33%
    12:00 +15°C° 0 mm 7 mps 733 mmHg 32%
    13:00 +16°C° 0 mm 7 mps 732 mmHg 30%
    14:00 +16°C° 0 mm 6 mps 731 mmHg 33%
    15:00 +16°C° 0 mm 5 mps 731 mmHg 35%
    16:00 +15°C° 0 mm 4 mps 730 mmHg 38%
    17:00 +15°C° 0 mm 4 mps 730 mmHg 42%
    18:00 +14°C° 0 mm 4 mps 730 mmHg 45%
    19:00 +14°C° 0 mm 5 mps 730 mmHg 49%
    20:00 +13°C° 0 mm 4 mps 729 mmHg 56%
    21:00 +13°C° 0 mm 4 mps 729 mmHg 62%
    22:00 +13°C° 0 mm 4 mps 728 mmHg 68%
    23:00 +12°C° 0 mm 4 mps 728 mmHg 74%

    28 May, Monday

    Time Temperature Precipitation Wind Pressure Humidity
    00:00 +12°C° 0 mm 4 mps 727 mmHg 80%
    01:00 +12°C° 0 mm 4 mps 726 mmHg 86%
    02:00 +12°C° 0 mm 5 mps 725 mmHg 88%
    03:00 +12°C° 0 mm 5 mps 724 mmHg 90%
    04:00 +12°C° 0 mm 5 mps 723 mmHg 91%
    05:00 +12°C° 0 mm 5 mps 723 mmHg 91%
    06:00 +12°C° 0 mm 4 mps 723 mmHg 91%
    07:00 +12°C° 0 mm 4 mps 723 mmHg 91%
    08:00 +13°C° 0 mm 4 mps 722 mmHg 84%
    09:00 +14°C° 0 mm 5 mps 722 mmHg 77%
    10:00 +15°C° 0 mm 5 mps 721 mmHg 70%
    11:00 +17°C° 0 mm 6 mps 721 mmHg 56%
    12:00 +20°C° 0 mm 7 mps 721 mmHg 42%
    13:00 +22°C° 0 mm 8 mps 721 mmHg 28%
    14:00 +21°C° 0 mm 8 mps 721 mmHg 29%
    15:00 +20°C° 0 mm 8 mps 722 mmHg 29%
    16:00 +18°C° 0 mm 8 mps 722 mmHg 29%
    17:00 +16°C° 0 mm 9 mps 723 mmHg 31%
    18:00 +14°C° 0 mm 10 mps 724 mmHg 33%
    19:00 +13°C° 0 mm 10 mps 725 mmHg 35%
    20:00 +12°C° 0 mm 11 mps 725 mmHg 34%
    21:00 +12°C° 0 mm 12 mps 725 mmHg 33%
    22:00 +12°C° 0 mm 13 mps 725 mmHg 33%
    23:00 +12°C° 0 mm 13 mps 725 mmHg 35%

    29 May, Tuesday

    Time Temperature Precipitation Wind Pressure Humidity
    00:00 +12°C° 0 mm 12 mps 725 mmHg 38%
    01:00 +11°C° 0 mm 11 mps 725 mmHg 40%
    02:00 +10°C° 0 mm 12 mps 726 mmHg 41%
    03:00 +10°C° 0 mm 12 mps 726 mmHg 42%
    04:00 +9°C° 0 mm 12 mps 726 mmHg 42%
    05:00 +9°C° 0 mm 12 mps 727 mmHg 43%
    06:00 +9°C° 0 mm 11 mps 728 mmHg 43%
    07:00 +9°C° 0 mm 10 mps 728 mmHg 44%
    08:00 +11°C° 0 mm 11 mps 729 mmHg 39%
    09:00 +12°C° 0 mm 13 mps 729 mmHg 35%
    10:00 +13°C° 0 mm 14 mps 730 mmHg 30%
    11:00 +14°C° 0 mm 14 mps 729 mmHg 28%
    12:00 +14°C° 0 mm 14 mps 729 mmHg 26%
    13:00 +15°C° 0 mm 14 mps 729 mmHg 24%
    14:00 +14°C° 0 mm 13 mps 730 mmHg 25%
    15:00 +14°C° 0 mm 11 mps 730 mmHg 27%
    16:00 +13°C° 0 mm 9 mps 730 mmHg 28%
    17:00 +12°C° 0 mm 8 mps 731 mmHg 31%
    18:00 +11°C° 0 mm 7 mps 731 mmHg 34%
    19:00 +10°C° 0 mm 5 mps 731 mmHg 37%
    20:00 +10°C° 0 mm 6 mps 732 mmHg 39%
    21:00 +10°C° 0 mm 6 mps 732 mmHg 41%
    22:00 +9°C° 0 mm 7 mps 732 mmHg 42%
    23:00 +9°C° 0 mm 7 mps 731 mmHg 43%
    Show more